METEOR 2-5 DEB

Satellite information

Favourite Embed

Satellite Type and Status

DEBRISIN ORBIT

Key statistics

Satellite METEOR 2-5 DEB at a glance.

Uptime

16741

Days in orbit

Revolutions

≈ 14.3

Per day

Orbit

LEO

Low Earth Orbit

Inclination

81.2

Latest

Satellite identification and parameters

Extended collection of information and parameters for METEOR 2-5 DEB.

Object identification

Identified? True

Debris? True

Object name: METEOR 2-5 DEB

International designator: 1979-095CU

Object number (NORAD): 45512

Object ID (CCSDS): 45512

Country: COMMONWEALTH OF INDEPENDENT STATES (CIS)

Current information (Y/N): Y

RCS size: SMALL

Orbital parameters

Period: 101.019 minutes

Inclination: 81.2216 deg

SMA: 7185.032 km

Apoapsis: 817.028 km

Periapsis: 796.766 km

RAAN: 125.8326 deg

Eccentricy: 0.00141001

Argument of periapsis: 351.47 deg

Mean anomaly: 8.6237 deg

Mean motion: 14.25475176 rev/day

Mean motion (dot): 0.00004851 rev/day2

B* drag term: 0.0020467809 1/REarth

Two-line elements (TLE)

Creation date: Aug. 30, 2025, 3:38 a.m.

Reference frame: TEME

Reference center: EARTH

Epoch: Aug. 29, 2025, 10:29 p.m. UTC

TLE line 0: 0 METEOR 2-5 DEB

TLE line 1: 1 45512U 79095CU 25241.93719858 .00004851 00000-0 20468-2 0 9991

TLE line 2: 2 45512 81.2216 125.8326 0014100 351.4700 8.6237 14.25475176524573

Live tracking on map

Real-time ground track for satellite METEOR 2-5 DEB.

In-orbit conjunctions

A list of the most updated potential collisions computed for object METEOR 2-5 DEB.

Target Orbit TCA Probability of collision Miss distance Type
CZ-6A DEB SSO 2024-09-27 19:26:05 0.0002223749 94.0 (m) DEBRIS
NOAA 16 DEB SSO 2024-09-27 10:09:14 0.0004650608 102.0 (m) DEBRIS
FENGYUN 1C DEB SSO 2024-09-23 06:20:47 0.0005503923 25.0 (m) DEBRIS
NOAA 16 DEB SSO 2024-09-20 05:40:19 0.0002179247 90.0 (m) DEBRIS

Associated space launch

Second generation soviet meteorological satellite

METEOR 2-5 DEB was lifted into orbit during the mission ‘Vostok 8A92M | Meteor-2 5’, on board a Vostok 8A92M space rocket.

The launch took place on Oct. 31, 1979, 9:25 a.m. from 43/4 (43R).

For more information about the launch, click the button.

Launch to space Vostok 8A92M | Meteor-2 5
Vostok 8A92M | Meteor-2 5

Agency: N/A

Status: Launch Successful

Launch date: Oct. 31, 1979, 9:25 a.m. UTC

Rocket: Vostok 8A92M

Launch pad: 43/4 (43R)

Location: Plesetsk Cosmodrome, Russian Federation

...

Latest news about this satellite

There are no fresh news available about this satellite. Check back as we update our databases every day.


Newsletter sign-up

Weekly statistics, charts and insights to help you stay on top of the space industry.